Back to catalog

STARLINK-2462

AliveCommunicationsVLEO
NORAD 48121·PAYLOAD·🇺🇸 United States

Launched Apr 7, 2021 from Cape Canaveral Space Force Station

Loading…

Next Passes (next 24 hours)

TLE

FreshSource: CelesTrak SupGP

Epoch: Sep 14, 2026, 21:41 UTC

1 48121C 21027AF  26257.90395833 -.00026280  00000+0 -84586-3 0  2570
2 48121  53.1595 354.3838 0001352  86.8215   2.3639 15.31685880    10

Track STARLINK-2462 in real time with AllMySat

Download on the App Store